DW5852 Weather Reports


Display with metric or nautical units.
time (UTC)temp
F
wind
direction
speed
MPH
gust
MPH
rain 1hr
in
rain 24hr
in
rain mn
in
humidity
%
barometer
mb
20260902162232 71 150 0.0 0.0 0.00 0.01 0.00 54 1034.8
20260902161735 70 107 0.0 0.0 0.00 0.01 0.00 56 1034.7
20260902161235 69 103 0.0 0.0 0.00 0.01 0.00 56 1034.7
20260902160735 68 13 0.0 0.0 0.00 0.01 0.00 56 1034.8
20260902160232 68 305 0.0 0.0 0.00 0.01 0.00 57 1034.7
20260902155732 68 82 0.0 0.0 0.00 0.01 0.00 55 1034.7
20260902155232 69 101 0.0 0.0 0.00 0.01 0.00 55 1034.6
20260902154735 69 3 0.0 0.0 0.00 0.01 0.00 54 1034.6
20260902154235 70 145 0.0 0.0 0.00 0.01 0.00 54 1034.6
20260902153735 70 77 0.0 0.0 0.00 0.01 0.00 55 1034.7
20260902153232 69 38 0.0 0.0 0.00 0.01 0.00 55 1034.7
20260902152735 69 66 0.0 0.0 0.00 0.01 0.00 55 1034.6
20260902152235 68 104 0.0 0.0 0.00 0.01 0.00 55 1034.6
20260902151735 69 89 0.0 0.0 0.00 0.01 0.00 57 1034.6
20260902151235 68 79 0.0 0.0 0.00 0.01 0.00 58 1034.5
20260902150735 67 73 0.0 0.0 0.00 0.01 0.00 57 1034.5
20260902150232 67 18 0.0 0.0 0.00 0.01 0.00 57 1034.5
20260902145735 66 96 0.0 0.0 0.00 0.01 0.00 58 1034.5
20260902145235 66 23 0.0 0.0 0.00 0.01 0.00 60 1034.5
20260902144735 65 68 0.0 0.0 0.00 0.01 0.00 60 1034.5
20260902144235 65 70 0.0 0.0 0.00 0.01 0.00 60 1034.4
20260902143732 65 0 0.0 0.0 0.00 0.01 0.00 61 1034.4
20260902143235 65 5 0.0 0.0 0.00 0.01 0.00 61 1034.3
20260902142735 65 83 0.0 0.0 0.00 0.01 0.00 62 1034.3
20260902142235 64 16 0.0 0.0 0.00 0.01 0.00 62 1034.2
20260902141735 64 89 0.0 0.0 0.00 0.01 0.00 62 1034.2
20260902141235 64 71 0.0 0.0 0.00 0.01 0.00 61 1034.1
20260902140735 64 105 0.0 0.0 0.00 0.01 0.00 62 1034.2
20260902140232 63 78 0.0 0.0 0.00 0.01 0.00 62 1034.1
20260902135732 63 75 0.0 0.0 0.00 0.01 0.00 61 1034.1
20260902135235 63 86 0.0 4.0 0.00 0.01 0.00 60 1033.9
20260902134735 63 128 0.0 0.0 0.00 0.01 0.00 59 1034.0
20260902134235 63 10 0.0 0.0 0.00 0.01 0.00 59 1034.0
20260902133735 63 72 0.0 0.0 0.00 0.01 0.00 61 1033.8
20260902133235 63 356 0.0 0.0 0.00 0.01 0.00 60 1033.8
20260902132732 62 340 0.0 0.0 0.00 0.01 0.00 60 1033.8
20260902132232 62 66 0.0 0.0 0.00 0.01 0.00 63 1033.8
20260902131732 61 269 0.0 0.0 0.00 0.01 0.00 64 1033.8
20260902131235 60 270 0.0 0.0 0.00 0.01 0.00 67 1033.7
20260902130735 59 270 0.0 0.0 0.00 0.01 0.00 69 1033.9
20260902130235 58 270 0.0 0.0 0.00 0.01 0.00 71 1033.8
20260902125735 57 270 0.0 0.0 0.00 0.01 0.00 72 1033.9
20260902125232 57 270 0.0 0.0 0.00 0.01 0.00 72 1033.9
20260902124732 57 172 0.0 0.0 0.00 0.01 0.00 71 1033.9
20260902124232 58 145 0.0 0.0 0.00 0.01 0.00 70 1033.9
20260902123732 58 145 0.0 0.0 0.00 0.01 0.00 69 1034.0
20260902123235 58 145 0.0 0.0 0.00 0.02 0.00 70 1033.9
20260902122735 58 145 0.0 0.0 0.00 0.02 0.00 70 1033.9
20260902122232 58 145 0.0 0.0 0.00 0.02 0.00 69 1033.9
20260902121735 58 253 0.0 0.0 0.00 0.02 0.00 70 1033.9
20260902121232 58 253 0.0 0.0 0.00 0.02 0.00 70 1033.9
20260902120735 59 253 0.0 0.0 0.00 0.02 0.00 69 1034.0
20260902120232 59 253 0.0 0.0 0.00 0.02 0.00 68 1034.0
20260902115732 60 253 0.0 0.0 0.00 0.02 0.00 68 1034.1
20260902115232 60 253 0.0 0.0 0.00 0.02 0.00 67 1034.0
20260902114732 60 253 0.0 0.0 0.00 0.03 0.00 67 1034.1
20260902114235 60 253 0.0 0.0 0.00 0.03 0.00 66 1034.2
20260902113732 61 253 0.0 0.0 0.00 0.03 0.00 63 1034.2
20260902113232 61 253 0.0 0.0 0.00 0.03 0.00 60 1034.3
20260902112735 62 253 0.0 0.0 0.00 0.03 0.00 59 1034.3
20260902112232 62 253 0.0 0.0 0.00 0.03 0.00 58 1034.3
20260902111735 62 253 0.0 0.0 0.00 0.03 0.00 58 1034.3
20260902111235 62 253 0.0 0.0 0.00 0.03 0.00 59 1034.4
20260902110735 62 253 0.0 0.0 0.00 0.03 0.00 58 1034.5
20260902110232 62 253 0.0 0.0 0.00 0.04 0.00 58 1034.6
20260902105735 62 253 0.0 0.0 0.00 0.04 0.00 59 1034.6
20260902105232 62 253 0.0 0.0 0.00 0.04 0.00 60 1034.5
20260902104735 61 253 0.0 0.0 0.00 0.04 0.00 60 1034.6
20260902104235 61 253 0.0 0.0 0.00 0.04 0.00 60 1034.6
20260902103732 61 253 0.0 0.0 0.00 0.04 0.00 60 1034.5
20260902103235 61 253 0.0 0.0 0.00 0.04 0.00 60 1034.6
20260902102735 61 253 0.0 0.0 0.00 0.04 0.00 61 1034.6
20260902102232 61 253 0.0 0.0 0.00 0.04 0.00 61 1034.6
20260902101735 61 253 0.0 0.0 0.00 0.04 0.00 61 1034.7
20260902101235 61 253 0.0 0.0 0.00 0.04 0.00 61 1034.7
20260902100732 61 253 0.0 0.0 0.00 0.04 0.00 62 1034.8
20260902100235 61 253 0.0 0.0 0.00 0.04 0.00 62 1034.8
20260902095732 61 251 0.0 0.0 0.00 0.04 0.00 62 1034.9
20260902095232 60 252 0.0 0.0 0.00 0.04 0.00 62 1034.9
20260902094732 60 255 0.0 0.0 0.00 0.04 0.00 62 1035.0
20260902094232 60 258 0.0 0.0 0.00 0.04 0.00 63 1035.0
20260902093735 60 258 0.0 0.0 0.00 0.04 0.00 63 1035.2
20260902093235 60 259 0.0 0.0 0.00 0.04 0.00 63 1035.3
20260902092735 61 287 0.0 0.0 0.00 0.04 0.00 62 1035.3
20260902092232 61 354 0.0 0.0 0.00 0.04 0.00 62 1035.3
20260902091732 60 354 0.0 0.0 0.00 0.04 0.00 62 1035.4
20260902091232 59 354 0.0 0.0 0.00 0.04 0.00 64 1035.5
20260902090735 60 354 0.0 0.0 0.00 0.04 0.00 65 1035.5
20260902090232 60 354 0.0 0.0 0.00 0.04 0.00 64 1035.5
20260902085735 61 354 0.0 0.0 0.00 0.04 0.00 62 1035.6
20260902085232 61 354 0.0 0.0 0.00 0.04 0.00 62 1035.6
20260902084735 60 354 0.0 0.0 0.00 0.04 0.00 63 1035.6
20260902084232 61 101 0.0 0.0 0.00 0.04 0.00 65 1035.7
20260902083732 61 102 0.0 0.0 0.00 0.04 0.00 65 1035.6
20260902083235 61 101 0.0 0.0 0.00 0.04 0.00 64 1035.6
20260902082735 61 124 0.0 0.0 0.00 0.04 0.00 64 1035.6
20260902082232 62 124 0.0 0.0 0.00 0.04 0.00 63 1035.6
20260902081732 62 148 0.0 0.0 0.00 0.04 0.00 62 1035.7
20260902081235 63 150 0.0 0.0 0.00 0.04 0.00 61 1035.8
20260902080735 63 98 0.0 0.0 0.00 0.04 0.00 60 1035.9
20260902080235 63 98 0.0 0.0 0.00 0.04 0.00 59 1035.9
20260902075732 63 98 0.0 0.0 0.00 0.04 0.00 57 1036.0
20260902075235 63 99 0.0 0.0 0.00 0.04 0.00 58 1036.1
20260902074735 63 262 0.0 0.0 0.00 0.04 0.00 54 1036.1
20260902074232 63 261 0.0 0.0 0.00 0.04 0.00 57 1036.1
20260902073735 62 262 0.0 0.0 0.00 0.04 0.00 59 1036.2
20260902073235 61 262 0.0 0.0 0.00 0.04 0.00 62 1036.2
20260902072735 61 261 0.0 0.0 0.00 0.04 0.00 62 1036.2
20260902072235 62 262 0.0 0.0 0.00 0.04 0.00 61 1036.3
20260902071735 62 262 0.0 0.0 0.00 0.04 0.00 60 1036.3
20260902071232 63 262 0.0 0.0 0.00 0.04 0.00 59 1036.4
20260902070735 63 262 0.0 0.0 0.00 0.04 0.00 58 1036.4
20260902070232 64 262 0.0 0.0 0.00 0.04 0.00 56 1036.4
20260902065735 63 258 0.0 0.0 0.00 0.04 0.00 55 1036.4
20260902065232 64 258 0.0 0.0 0.00 0.04 0.00 55 1036.5
20260902064732 64 259 0.0 0.0 0.00 0.04 0.00 55 1036.4
20260902064232 64 250 0.0 0.0 0.00 0.04 0.00 55 1036.3
20260902063735 64 250 0.0 0.0 0.00 0.04 0.00 56 1036.5
20260902063232 64 250 0.0 0.0 0.00 0.04 0.00 55 1036.4
20260902062735 65 241 0.0 0.0 0.00 0.04 0.00 55 1036.5
20260902061732 65 250 0.0 0.0 0.00 0.04 0.00 56 1036.5
20260902061232 64 247 0.0 0.0 0.00 0.04 0.00 56 1036.5
20260902060735 64 246 0.0 0.0 0.00 0.04 0.00 56 1036.6
20260902060235 65 245 0.0 0.0 0.00 0.04 0.00 56 1036.4
20260902055735 65 245 0.0 0.0 0.00 0.04 0.00 56 1036.5
20260902055232 65 245 0.0 0.0 0.00 0.04 0.00 56 1036.6
20260902054732 65 243 0.0 0.0 0.00 0.04 0.00 56 1036.6
20260902054235 65 243 0.0 0.0 0.00 0.04 0.00 57 1036.6
20260902053732 65 243 0.0 0.0 0.00 0.04 0.00 57 1036.6
20260902053232 64 226 0.0 0.0 0.00 0.04 0.00 56 1036.6
20260902052735 64 231 0.0 0.0 0.00 0.04 0.00 57 1036.7
20260902052232 64 242 0.0 0.0 0.00 0.04 0.00 57 1036.7
20260902051732 64 241 0.0 0.0 0.00 0.04 0.00 56 1036.8
20260902051235 64 242 0.0 0.0 0.00 0.04 0.00 57 1036.7
20260902050732 64 242 0.0 0.0 0.00 0.04 0.00 59 1036.7
20260902050235 64 242 0.0 0.0 0.00 0.04 0.00 61 1036.7
20260902045732 64 242 0.0 0.0 0.00 0.04 0.00 60 1036.7
20260902045235 64 242 0.0 0.0 0.00 0.04 0.00 60 1036.8
20260902044735 64 242 0.0 0.0 0.00 0.04 0.00 60 1036.8
20260902044235 65 241 0.0 0.0 0.00 0.04 0.00 61 1036.8
20260902043735 65 242 0.0 0.0 0.00 0.04 0.00 60 1036.8
20260902043235 65 242 0.0 0.0 0.00 0.04 0.00 60 1036.8
20260902042735 65 256 0.0 0.0 0.00 0.04 0.00 60 1036.8
20260902042235 65 256 0.0 0.0 0.00 0.04 0.00 60 1036.8
20260902041735 65 256 0.0 0.0 0.00 0.04 0.00 59 1036.8
20260902041235 65 256 0.0 0.0 0.00 0.04 0.00 60 1036.8
20260902040735 66 256 0.0 0.0 0.00 0.04 0.00 59 1036.7
20260902040235 66 256 0.0 0.0 0.00 0.04 0.00 58 1036.7
20260902035735 66 256 0.0 0.0 0.00 0.05 0.00 59 1036.6
20260902035235 65 256 0.0 0.0 0.00 0.05 0.00 60 1036.6
20260902034732 65 256 0.0 0.0 0.00 0.05 0.00 61 1036.5
20260902034232 65 256 0.0 0.0 0.00 0.05 0.00 61 1036.5
20260902033735 65 256 0.0 0.0 0.00 0.05 0.00 63 1036.4
20260902033235 65 256 0.0 0.0 0.00 0.05 0.00 64 1036.3
20260902032735 64 256 0.0 0.0 0.00 0.05 0.00 64 1036.3
20260902032235 65 256 0.0 0.0 0.00 0.05 0.00 63 1036.2
20260902031735 65 256 0.0 0.0 0.00 0.05 0.00 63 1036.1
20260902031235 65 256 0.0 0.0 0.00 0.05 0.00 63 1036.1
20260902030735 65 257 0.0 0.0 0.00 0.05 0.00 63 1035.9
20260902030232 65 256 0.0 0.0 0.00 0.05 0.00 65 1035.8
20260902025735 64 256 0.0 0.0 0.00 0.05 0.00 66 1035.8
20260902025235 64 262 0.0 0.0 0.00 0.05 0.00 67 1035.6
20260902024732 64 273 0.0 0.0 0.00 0.05 0.00 66 1035.5
20260902024235 64 86 0.0 0.0 0.00 0.05 0.00 66 1035.4
20260902023735 64 86 0.0 0.0 0.00 0.05 0.00 67 1035.4
20260902023235 64 86 0.0 0.0 0.00 0.05 0.00 67 1035.3
20260902022735 64 86 0.0 0.0 0.00 0.05 0.00 66 1035.3
20260902022235 65 86 0.0 0.0 0.00 0.05 0.00 66 1035.2
20260902021732 65 86 0.0 0.0 0.00 0.05 0.00 65 1035.1
20260902021235 65 86 0.0 0.0 0.00 0.05 0.00 64 1035.0
20260902020732 65 86 0.0 0.0 0.00 0.05 0.00 64 1034.9
20260902020232 66 86 0.0 0.0 0.00 0.05 0.00 63 1034.9
20260902015735 66 86 0.0 0.0 0.00 0.05 0.00 62 1034.8
20260902015235 67 86 0.0 0.0 0.00 0.05 0.00 61 1034.7
20260902014732 67 86 0.0 0.0 0.00 0.05 0.00 60 1034.6
20260902014232 67 87 0.0 0.0 0.00 0.05 0.00 60 1034.5
20260902013735 68 87 0.0 0.0 0.00 0.05 0.00 60 1034.5
20260902013235 68 87 0.0 0.0 0.00 0.05 0.00 59 1034.5
20260902012735 68 77 0.0 0.0 0.00 0.05 0.00 59 1034.4
20260902012232 68 70 0.0 0.0 0.00 0.05 0.00 58 1034.4
20260902011732 69 83 0.0 0.0 0.00 0.05 0.00 57 1034.3
20260902011235 70 83 0.0 0.0 0.00 0.06 0.00 56 1034.2
20260902010732 71 74 0.0 0.0 0.00 0.06 0.00 53 1034.1
20260902010232 72 338 0.0 0.0 0.00 0.06 0.00 52 1034.1
20260902005735 71 338 0.0 0.0 0.00 0.06 0.00 53 1034.1
20260902005232 70 339 0.0 0.0 0.00 0.06 0.00 54 1034.1
20260902004732 70 337 0.0 0.0 0.00 0.06 0.00 56 1034.1
20260902004232 70 28 0.0 0.0 0.00 0.06 0.00 57 1034.0
20260902003735 69 9 0.0 0.0 0.00 0.06 0.00 57 1034.0
20260902003235 69 335 0.0 0.0 0.00 0.06 0.00 57 1034.1
20260902002732 69 49 0.0 0.0 0.00 0.06 0.00 57 1034.1
20260902002235 69 325 0.0 0.0 0.00 0.06 0.00 55 1034.1
20260902001735 70 38 0.0 0.0 0.00 0.06 0.00 55 1034.0
20260902001232 70 6 0.0 0.0 0.00 0.06 0.00 55 1033.9
20260902000732 70 64 0.0 0.0 0.00 0.06 0.00 54 1033.8
20260902000233 71 35 0.0 0.0 0.00 0.06 0.00 55 1033.7
20260901235735 71 30 0.0 0.0 0.00 0.06 0.00 56 1033.6
20260901235232 71 30 0.0 7.0 0.00 0.06 0.00 55 1033.5
20260901234735 72 343 0.0 0.0 0.00 0.06 0.00 54 1033.4
20260901234235 72 68 0.0 0.0 0.00 0.06 0.00 52 1033.4
20260901233732 73 33 0.0 6.0 0.00 0.06 0.00 53 1033.2
20260901233232 73 25 0.0 4.0 0.00 0.06 0.00 54 1033.2
20260901232732 73 58 0.0 0.0 0.00 0.06 0.00 55 1033.1
20260901232235 72 87 0.0 0.0 0.00 0.11 0.00 56 1033.1
20260901231735 71 67 0.0 0.0 0.00 0.11 0.00 56 1033.0
20260901231232 71 86 0.0 0.0 0.00 0.11 0.00 56 1033.0
20260901230732 71 71 0.0 0.0 0.00 0.11 0.00 57 1033.0
20260901230235 71 33 0.0 0.0 0.00 0.11 0.00 58 1033.0
20260901225732 70 41 0.0 4.0 0.00 0.11 0.00 57 1032.9
20260901225232 70 53 0.0 2.0 0.00 0.11 0.00 59 1032.9
20260901224732 71 32 0.0 2.0 0.00 0.11 0.00 59 1032.9
20260901224235 71 72 0.0 7.0 0.00 0.11 0.00 58 1032.9
20260901223735 71 68 0.0 2.0 0.00 0.11 0.00 58 1032.9
20260901223232 71 53 0.0 0.0 0.00 0.11 0.00 58 1032.9
20260901222732 71 26 0.0 0.0 0.00 0.11 0.00 55 1032.9
20260901222232 72 61 0.0 0.0 0.00 0.11 0.00 55 1032.9
20260901221735 73 134 0.0 8.0 0.00 0.11 0.00 53 1032.8
20260901221232 73 84 0.0 8.0 0.00 0.11 0.00 48 1032.8
20260901220735 73 65 4.0 6.0 0.00 0.11 0.00 48 1032.8
20260901220232 74 84 0.0 0.0 0.00 0.11 0.00 47 1032.7
20260901215732 75 69 0.0 8.0 0.00 0.11 0.00 46 1032.8
20260901215232 77 97 0.0 4.0 0.00 0.11 0.00 44 1032.7
20260901214735 78 150 0.0 4.0 0.00 0.11 0.00 43 1032.7
20260901214235 77 210 0.0 0.0 0.00 0.11 0.00 47 1032.6
20260901213732 76 335 0.0 0.0 0.00 0.11 0.00 48 1032.7
20260901213232 76 315 0.0 0.0 0.00 0.11 0.00 48 1032.6
20260901212732 75 241 0.0 0.0 0.00 0.11 0.00 50 1032.6
20260901212235 74 250 0.0 0.0 0.00 0.11 0.00 52 1032.7
20260901211735 73 250 0.0 0.0 0.00 0.11 0.00 55 1032.7
20260901211235 72 296 0.0 0.0 0.00 0.11 0.00 57 1032.8
20260901210735 71 325 0.0 0.0 0.00 0.11 0.00 59 1032.8
20260901210232 70 266 0.0 5.0 0.00 0.11 0.00 60 1032.9
20260901205732 69 316 0.0 0.0 0.00 0.11 0.00 61 1032.9
20260901205235 68 257 0.0 0.0 0.00 0.11 0.00 64 1032.9
20260901204732 68 262 0.0 0.0 0.00 0.11 0.00 66 1033.1
20260901204232 68 342 0.0 5.0 0.00 0.11 0.00 60 1033.1
20260901203735 68 255 0.0 13.0 0.00 0.11 0.00 59 1033.2
20260901203232 69 243 0.0 11.0 0.00 0.11 0.00 58 1033.2
20260901202732 70 249 8.0 11.0 0.00 0.11 0.00 55 1033.0
20260901202235 71 235 0.0 10.0 0.00 0.11 0.00 52 1033.0
20260901201735 73 189 0.0 7.0 0.00 0.11 0.00 51 1032.9
20260901201232 74 170 7.0 10.0 0.00 0.11 0.00 49 1032.7
20260901200735 75 229 0.0 9.0 0.00 0.11 0.00 49 1032.7
20260901200232 76 114 3.0 10.0 0.00 0.11 0.00 49 1032.6
20260901195732 77 132 0.0 5.0 0.00 0.11 0.00 48 1032.6
20260901195232 77 241 0.0 12.0 0.00 0.11 0.00 47 1032.6
20260901194735 77 174 0.0 6.0 0.00 0.11 0.00 48 1032.6
20260901194232 76 166 3.0 3.0 0.00 0.11 0.00 49 1032.5
20260901193732 76 158 0.0 7.0 0.00 0.11 0.00 48 1032.5
20260901193232 76 145 0.0 2.0 0.00 0.11 0.00 50 1032.5
20260901192732 76 187 0.0 7.0 0.00 0.11 0.00 49 1032.5
20260901192235 75 105 0.0 4.0 0.00 0.11 0.00 51 1032.6
20260901191732 74 156 0.0 8.0 0.00 0.11 0.00 54 1032.6
20260901191232 73 203 1.0 8.0 0.00 0.11 0.00 56 1032.7
20260901190732 72 161 0.0 0.0 0.00 0.11 0.00 60 1032.7
20260901190235 72 190 0.0 0.0 0.00 0.11 0.00 60 1032.8
20260901185735 72 132 0.0 0.0 0.01 0.11 0.00 61 1032.7
20260901185235 71 96 0.0 0.0 0.01 0.11 0.00 64 1032.7
20260901184732 71 197 0.0 0.0 0.01 0.11 0.00 63 1032.8
20260901184232 71 131 0.0 0.0 0.01 0.11 0.00 66 1032.7
20260901183732 70 199 0.0 0.0 0.01 0.11 0.00 68 1032.8
20260901183232 69 142 0.0 0.0 0.01 0.11 0.00 69 1032.8
20260901182735 68 148 0.0 0.0 0.01 0.11 0.00 72 1032.8
20260901182235 67 108 0.0 0.0 0.01 0.11 0.00 75 1032.8
20260901181732 66 148 0.0 0.0 0.01 0.11 0.00 74 1032.7
20260901181232 66 152 0.0 0.0 0.01 0.11 0.00 76 1032.9
20260901180735 65 185 0.0 0.0 0.01 0.11 0.00 78 1032.9
20260901180235 65 164 0.0 0.0 0.01 0.11 0.00 79 1033.0
20260901175735 65 163 0.0 0.0 0.00 0.10 0.00 74 1033.0
20260901175232 65 164 0.0 0.0 0.00 0.10 0.00 76 1033.1
20260901174735 65 145 0.0 0.0 0.00 0.10 0.00 73 1033.1
20260901174232 65 139 0.0 0.0 0.00 0.10 0.00 73 1033.1
20260901173735 66 169 0.0 0.0 0.00 0.10 0.00 72 1033.1
20260901173232 66 145 0.0 0.0 0.00 0.10 0.00 69 1033.1
20260901172732 67 134 0.0 0.0 0.00 0.10 0.00 69 1033.0
20260901172232 68 169 0.0 0.0 0.00 0.10 0.00 68 1033.0
20260901171732 68 165 0.0 0.0 0.00 0.10 0.00 68 1033.0
20260901171235 68 139 0.0 0.0 0.00 0.10 0.00 68 1033.0
20260901170732 68 169 0.0 0.0 0.00 0.10 0.00 68 1033.0
20260901170235 68 169 0.0 0.0 0.00 0.10 0.00 68 1032.9
20260901165732 67 169 0.0 0.0 0.00 0.10 0.00 70 1032.8
20260901165232 66 114 0.0 0.0 0.00 0.10 0.00 73 1032.8
20260901164732 65 120 0.0 0.0 0.00 0.10 0.00 76 1032.8
20260901164235 65 30 0.0 0.0 0.00 0.10 0.00 75 1032.7
20260901163735 65 107 0.0 0.0 0.00 0.10 0.00 76 1032.7
20260901163235 65 114 0.0 2.0 0.00 0.10 0.00 79 1032.7
20260901162732 65 129 0.0 0.0 0.00 0.10 0.00 77 1032.6